Regional Weather Roundup
Issued by NWS

Home | Current Version | Previous Version | Graphics & Text | Print | Product List | Glossary On
Versions: 1 2 3 4 5 6 7 8 9 10 11 12 13 14 15 16 17 18 19 20 21 22 23 24 25 26 27
000
ASUS45 KBOU 251507
RWRCO

WEATHER ROUNDUP FOR COLORADO
NATIONAL WEATHER SERVICE DENVER/BOULDER CO
900 AM MDT MON JUL 25 2016

NOTE: "FAIR" INDICATES FEW OR NO CLOUDS BELOW 12000 FEET WITH NO
SIGNIFICANT WEATHER AND/OR OBSTRUCTIONS TO VISIBILITY.

COZ001>005-013-030-031-251600-
...NORTHWEST COLORADO...

CITY           SKY/WX    TMP DP  RH WIND       PRES   REMARKS
CRAIG          FAIR      65  42  43 CALM      30.30S
HAYDEN         FAIR      66  39  37 E12       30.32S
MEEKER         FAIR      64  41  42 S3        30.31R
MOUNT WERNER   NOT AVBL
STEAMBOAT SPGS FAIR      61  42  49 CALM      30.34S
WALDEN         FAIR      57  37  47 CALM      30.44F
$$

COZ006>008-011-251600-
...WEST CENTRAL VALLEYS...

CITY           SKY/WX    TMP DP  RH WIND       PRES   REMARKS
GRAND JUNCTION FAIR      80  41  24 SE9       30.17S
MONTROSE       FAIR      74  46  36 W6        30.28S
EAGLE          SUNNY    N/A N/A N/A CALM      30.40S
RIFLE          FAIR      68  42  38 NW3       30.27S
DELTA          FAIR      74  42  31 CALM      30.25R
NUCLA          NOT AVBL
$$

COZ017>023-064>068-251600-
...SOUTHWEST COLORADO...

CITY           SKY/WX    TMP DP  RH WIND       PRES   REMARKS
DURANGO        FAIR      65  49  56 E6        30.37R
CORTEZ         FAIR      71  48  43 CALM      30.29R
PAGOSA SPRINGS FAIR      70  41  35 SE3       30.45R
TELLURIDE      FAIR      61  44  53 CALM      30.55S
WOLF CREEK PAS FAIR      55  39  54 CALM      30.78R
$$

COZ009-010-012-014-032>034-037-058>063-251600-
...CENTRAL COLORADO...

CITY           SKY/WX    TMP DP  RH WIND       PRES   REMARKS
ASPEN          FAIR      65  43  44 N6        30.41S
BUENA VISTA    FAIR      64  44  47 N6        30.47S
COPPER MTN     FAIR      61  32  33 CALM      30.76R
BERTHOUD PASS  FAIR      52  36  54 NW15G22   30.79R
COTTONWOOD PAS FAIR      63  43  48 CALM      30.60R
GUNNISON       FAIR      57  39  51 CALM      30.50S
KREMMLING      FAIR      54  43  66 CALM      30.45F
LEADVILLE      FAIR      57  40  52 W3        30.59S
MONARCH PASS   FAIR      54  37  54 SW9       30.86S
SALIDA         FAIR      65  46  50 CALM      30.51F
SUNLIGHT       FAIR      61  41  48 CALM      30.68R
WILKERSON PASS FAIR      55  37  50 SW6       30.73R
$$

COZ069>075-251600-
...SAN LUIS VALLEY/SANGRE DE CRISTO MOUNTAINS...

CITY           SKY/WX    TMP DP  RH WIND       PRES   REMARKS
ALAMOSA        FAIR      65  48  54 NE7       30.44S
LA VETA PASS   FAIR      59  43  55 SW7       30.61S
SAGUACHE       FAIR      68  45  42 NW9       30.46S
$$

COZ035-036-038>040-251600-
...NORTHERN COLORADO FRONT RANGE...

CITY           SKY/WX    TMP DP  RH WIND       PRES   REMARKS
DENVER INTL AP FAIR      70  54  56 CALM      30.22R
DMNS CITY PARK   N/A     72  54  53 N3G9      30.21R
AURORA         NOT AVBL
FRONT RANGE AP SUNNY     73  55  53 E8        30.23S
ERIE MUNI ARPT FAIR      69  57  65 NE6       30.21R
BOULDER MUN AP FAIR      68  55  64 NE5       30.22R
CENTENNIAL     FAIR      78  46  32 SW8       30.23S
BROOMFIELD     MOSUNNY   70  55  60 NE7       30.24R
LONGMONT       FAIR      72  57  59 E5        30.22S
$$

COZ041-046-047-076>085-087-088-251600-
...PIKES PEAK/PALMER DIVIDE AND SOUTHERN FOOTHILLS...

CITY           SKY/WX    TMP DP  RH WIND       PRES   REMARKS
COLO. SPRINGS  FAIR      64  56  75 S5        30.33S
A. F. ACADEMY  NOT AVBL
SCHRIEVER AFB  NOT AVBL
ELLICOTT       FAIR     N/A N/A N/A VRB6      30.31S
FALCON         NOT AVBL
FORT CARSON    FAIR      64  58  78 S6        30.29F
LIMON          FAIR      70  56  61 S14       30.25F
MONUMENT HILL  FAIR      73  48  40 SW9       30.35R
TRINIDAD       NOT AVBL
$$

COZ042>045-048>051-090-091-251600-
...NORTHEAST COLORADO...

CITY           SKY/WX    TMP DP  RH WIND       PRES   REMARKS
GREELEY ARPT   FAIR      66  57  72 SE7       30.21F
AKRON          FAIR      69  57  65 SE16      30.21S
BURLINGTON     FAIR      70  59  68 SE6       30.23R
WRAY           NOT AVBL
STERLING       FAIR      73  59  60 SE9       30.18S
HOLYOKE        FAIR      73  63  68 W9        30.20S
FORT MORGAN    FAIR      68  57  68 E8        30.21S
$$

COZ086-089-092>099-251600-
...SOUTHEAST COLORADO...

CITY           SKY/WX    TMP DP  RH WIND       PRES   REMARKS
PUEBLO         FAIR      72  59  63 CALM      30.23F
LA JUNTA       FAIR      72  61  68 SW7       30.22S
LAMAR          FAIR      73  61  65 CALM      30.18S
SPRINGFIELD      N/A     77  59  53 CALM      30.21S
$$




USA.gov is the U.S. government's official web portal to all federal, state and local government web resources and services.